Regional Weather Roundup
Issued by NWS

Home | Current Version | Previous Version | Text Only | Print | Product List | Glossary Off
Versions: 1 2 3 4 5 6 7 8 9 10 11 12 13 14 15 16 17 18 19 20 21 22 23 24 25 26 27 28 29 30 31 32 33 34 35 36 37 38 39 40 41 42 43 44 45 46 47 48 49 50

000
ASUS43 KDMX 181801
RWRIA

WEATHER ROUNDUP FOR IOWA
NATIONAL WEATHER SERVICE DES MOINES IA
1200 PM CST SAT FEB 18 2017

NOTE: "FAIR" INDICATES FEW OR NO CLOUDS BELOW 12,000 FEET WITH NO
SIGNIFICANT WEATHER AND/OR OBSTRUCTIONS TO VISIBILITY.

* - THESE STATIONS ARE NOT NWS STATIONS...THUS NOT UNDER NWS
QUALITY CONTROL.  THEY ALSO DO NOT REPORT WEATHER SUCH
AS PRECIPITATION OR FOG.

IAZ001>003-012>014-020>022-031>034-043>046-181900-
   NORTHWEST IOWA

CITY           SKY/WX    TMP DP  RH WIND       PRES   REMARKS
CARROLL *      SUNNY     59  37  44 NW3       29.81F
CHEROKEE *     SUNNY     54  41  61 S3        29.82S
DENISON *      SUNNY     55  37  50 CALM      29.80F
LE MARS *      SUNNY     52  39  62 CALM      29.84S
SHELDON *      SUNNY     48  46  93 NW5       29.81S
SIOUX CITY     SUNNY     54  39  57 S3        29.85R
6HR MIN TEMP:  30; 6HR MAX TEMP:  54;

SPENCER        SUNNY     52  40  63 CALM      29.82R
6HR MIN TEMP:  31; 6HR MAX TEMP:  52;

STORM LAKE *   SUNNY     54  41  62 CALM      29.82R
$$

IAZ055>058-069>071-079>083-090>094-181900-
   SOUTHWEST IOWA

CITY           SKY/WX    TMP DP  RH WIND       PRES   REMARKS
ATLANTIC *     SUNNY     57  39  51 CALM      29.82F
CLARINDA *     SUNNY     59  37  44 CALM        N/A
COUNCIL BLFS * SUNNY     59  37  44 VRB6      29.83F
CRESTON *      SUNNY     59  34  38 NE5       29.83F
HARLAN  *      SUNNY     57  39  51 CALM      29.85F
LAMONI         SUNNY     62  38  40 NE6       29.81S
6HR MIN TEMP:  37; 6HR MAX TEMP:  63;

RED OAK *      SUNNY     59  37  44 CALM      29.83F
SHENANDOAH *   SUNNY     59  37  44 NE5       29.83F
$$

IAZ047>049-059>061-072>074-084-181900-
   CENTRAL IOWA

CITY           SKY/WX    TMP DP  RH WIND       PRES   REMARKS
AMES           SUNNY     56  38  50 N7        29.81F
6HR MIN TEMP:  28; 6HR MAX TEMP:  56;

ANKENY *       SUNNY     59  36  41 MISG      29.82F
BOONE *        SUNNY     54  39  58 VRB5      29.81F
CHARITON *     SUNNY     59  36  41 VRB5      29.81S
DES MOINES     MOSUNNY   59  35  40 SW3       29.82F
6HR MIN TEMP:  35; 6HR MAX TEMP:  59;

GRINNELL*      SUNNY     56  37  48 N3        29.82F
KNOXVILLE *    SUNNY     57  34  41 N5        29.80F
MARSHALLTOWN   SUNNY     55  38  52 N6        29.80F
6HR MIN TEMP:  30; 6HR MAX TEMP:  55;

NEWTON *       SUNNY     55  37  50 CALM      29.80F
PELLA *        SUNNY     58  37  44 NW7       29.82F
PERRY *          N/A     55  37  52 CALM      29.82F
$$

IAZ004>006-015-016-023>025-035-036-181900-
   NORTH CENTRAL IOWA

CITY           SKY/WX    TMP DP  RH WIND       PRES   REMARKS
ALGONA *       SUNNY     50  43  76 N5        29.82S
CLARION *      SUNNY     48  43  81 NW6       29.81S
ESTHERVILLE    SUNNY     51  40  65 N8        29.81R
6HR MIN TEMP:  33; 6HR MAX TEMP:  51;

FORT DODGE *   SUNNY     52  39  62 CALM      29.83S
MASON CITY     SUNNY     51  40  65 VRB5      29.81R
6HR MIN TEMP:  33; 6HR MAX TEMP:  51;

FOREST CITY *    N/A     54  39  58 NW7       29.80F
IOWA FALLS *     N/A     51  41  66 CALM      29.82S
$$

IAZ007>011-017>019-026>030-037>042-050>054-066-181900-
   NORTHEAST IOWA

CITY           SKY/WX    TMP DP  RH WIND       PRES   REMARKS
CEDAR RAPIDS   SUNNY     56  39  53 NW8       29.78F
6HR MIN TEMP:  31; 6HR MAX TEMP:  56;

CHARLES CITY * SUNNY     50  43  76 CALM      29.79F
CLINTON *      SUNNY     58  40  51 NW7       29.78F
DECORAH *      SUNNY     52  39  62 N3        29.76F
DUBUQUE        SUNNY     58  37  45 CALM      29.77F
6HR MIN TEMP:  32; 6HR MAX TEMP:  58;

MONTICELLO *   SUNNY     57  37  47 CALM      29.77F
OELWEIN *      SUNNY     48  39  71 CALM      29.80F
WATERLOO       SUNNY     52  36  54 NW5       29.79F
6HR MIN TEMP:  28; 6HR MAX TEMP:  53;

$$

IAZ064-065-067-068-078-181900-
   EAST CENTRAL IOWA

CITY           SKY/WX    TMP DP  RH WIND       PRES   REMARKS
DAVENPORT      SUNNY     58  38  47 VRB5      29.78F
6HR MIN TEMP:  31; 6HR MAX TEMP:  58;

IOWA CITY      SUNNY     59  37  44 NW6       29.80F
6HR MIN TEMP:  30; 6HR MAX TEMP:  59;

MUSCATINE *    SUNNY     61  34  36 NW6       29.79F
QUAD CITIES    SUNNY     63  36  36 CALM      29.76F
6HR MIN TEMP:  35; 6HR MAX TEMP:  63;

$$

IAZ062-063-075>077-085>089-095>099-181900-
   SOUTHEAST IOWA

CITY           SKY/WX    TMP DP  RH WIND       PRES   REMARKS
BURLINGTON     SUNNY     63  41  44 N7        29.78F
6HR MIN TEMP:  40; 6HR MAX TEMP:  63;

FAIRFIELD *    SUNNY     61  36  39 N5        29.79F
KEOKUK *       SUNNY     63  41  45 CALM      29.78F
CENTERVILLE *    N/A     63  39  42 CALM      29.82S
OTTUMWA        SUNNY     59  35  40 NE3       29.80F
6HR MIN TEMP:  32; 6HR MAX TEMP:  60;

WASHINGTON *   SUNNY     61  36  39 N7        29.80F
$$

ABBREVIATIONS USED IN REMARKS
   TC - TEMPERATURES IN CELSIUS
  WCI - WIND CHILL INDEX
   HX - HEAT INDEX
  VSB - VISIBILITY
$$





USA.gov is the U.S. government's official web portal to all federal, state and local government web resources and services.